SCP
0 0 0 0 0 0 0 0 0 0 0 0 0 0 0 0 0 0 0 0 0 0 0 0 0 0 0 0 0 0 0 0 0 0 0 0 0 0 0 0 0 0 0
0 0 0 0 0 0 0 0 0 0 0 0 0 0 0 0 0 0 0 0 0 0 0 0 0 0 0 0 0 0 0 0 0 0 0 0 0 0 0 0 0 0 0
0 0 0 0 0 0 0 0 0 0 0 0 0 0 0 0 0 0 0 0 0 0 0 0 0 0 0 0 0 0 0 0 0 0 0 0 0 0 0 0 0 0 0
0 0 0 0 0 0 0 0 0 0 0 0 0 0 0 0 0 0 0 0 0 0 0 0 0 0 0 0 0 0 0 0 0 0 0 0 0 0 0 0 0 0 0
0 0 0 0 0 0 0 0 0 0 0 0 0 0 0 0 0 0 0 0 0 0 0 0 0 0 0 0 0 0 0 0 0 0 0 0 0 0 0 0 0 0 0
0 0 0 0 0 0 0 0 0 0 0 0 0 0 0 0 0 0 0 0 0 0 0 0 0 0 0 0 0 0 0 0 0 0 0 0 0 0 0 0 0 0 0
0 0 0 0 0 0 0 0 0 0 0 0 0 0 0 0 0 0 0 0 0 0 0 0 0 0 0 0 0 0 0 0 0 0 0 0 0 0 0 0 0 0 0
0 0 0 0 0 0 0 0 0 0 0 0 0 0 0 0 0 0 0 0 0 0 0 0 0 0 0 0 0 0 0 0 0 0 0 0 0 0 0 0 0 0 0
0 0 0 0 0 0 0 0 0 0 0 0 0 0 0 0 0 0 0 0 0 0 0 0 0 0 0 0 0 0 0 0 0 0 0 0 0 0 0 0 0 0 0
0 0 0 0 0 0 0 0 0 0 0 0 0 0 0 0 0 0 0 0 0 0 0 0 0 0 0 0 0 0 0 0 0 0 0 0 0 0 0 0 0 0 0
0 0 0 0 0 0 0 0 0 0 0 0 0 0 0 0 0 0 0 0 0 0 0 0 0 0 0 0 0 0 0 0 0 0 0 0 0 0 0 0 0 0 0
0 0 0 0 0 0 0 0 0 0 0 0 0 0 0 0 0 0 0 0 0 0 0 0 0 0 0 0 0 0 0 0 0 0 0 0 0 0 0 0 0 0 0
0 0 0 0 0 0 0 0 0 0 0 0 0 0 0 0 0 0 0 0 0 0 0 0 0 0 0 0 0 0 0 0 0 0 0 0 0 0 0 0 0 0 0
0 0 0 0 0 0 0 0 0 0 0 0 0 0 0 0 0 0 0 0 0 0 0 0 0 0 0 0 0 0 0 0 0 0 0 0 0 0 0 0 0 0 0
0 0 0 0 0 0 0 0 0 0 0 0 0 0 0 0 0 0 0 0 0 0 0 0 0 0 0 0 0 0 0 0 0 0 0 0 0 0 0 0 0 0 0
0 0 0 0 0 0 0 0 0 0 0 0 0 0 0 0 0 0 0 0 0 0 0 0 0 0 0 0 0 0 0 0 0 0 0 0 0 0 0 0 0 0 0
0 0 0 0 0 0 0 0 0 0 0 0 0 0 0 0 0 0 0 0 0 0 0 0 0 0 0 0 0 0 0 0 0 0 0 0 0 0 0 0 0 0 0
0 0 0 0 0 0 0 0 0 0 0 0 0 0 0 0 0 0 0 0 0 0 0 0 0 0 0 0 0 0 0 0 0 0 0 0 0 0 0 0 0 0 0
0 0 0 0 0 0 0 0 0 0 0 0 0 0 0 0 0 0 0 0 0 0 0 0 0 0 0 0 0 0 0 0 0 0 0 0 0 0 0 0 0 0 0
0 0 0 0 0 0 0 0 0 0 0 0 0 0 0 0 0 0 0 0 0 0 0 0 0 0 0 0 0 0 0 0 0 0 0 0 0 0 0 0 0 0 0
0 0 0 0 0 0 0 0 0 0 0 0 0 0 0 0 0 0 0 0 0 0 0 0 0 0 0 0 0 0 0 0 0 0 0 0 0 0 0 0 0 0 0
0 0 0 0 0 0 0 0 0 0 0 0 0 0 0 0 0 0 0 0 0 0 0 0 0 0 0 0 0 0 0 0 0 0 0 0 0 0 0 0 0 0 0
0 0 0 0 0 0 0 0 0 0 0 0 0 0 0 0 0 0 0 0 0 0 0 0 0 0 0 0 0 0 0 0 0 0 0 0 0 0 0 0 0 0 0
0 0 0 0 0 0 0 0 0 0 0 0 0 0 0 0 0 0 0 0 0 0 0 0 0 0 0 0 0 0 0 0 0 0 0 0 0 0 0 0 0 0 0
0 0 0 0 0 0 0 0 0 0 0 0 0 0 0 0 0 0 0 0 0 0 0 0 0 0 0 0 0 0 0 0 0 0 0 0 0 0 0 0 0 0 0
0 0 0 0 0 0 0 0 0 0 0 0 0 0 0 0 0 0 0 0 0 0 0 0 0 0 0 0 0 0 0 0 0 0 0 0 0 0 0 0 0 0 0
Wind_Speed
2 2 1 1 1 1 1 1 1 2 2 2 2 2 3 4 4 3 3 9 9 9 10 10 10 9 9 8 8 7 7 7 7 8 8 8 7 7 7 7 7 7 7
3 2 2 1 2 2 2 2 2 2 2 1 1 1 2 3 3 4 3 5 8 8 9 9 9 9 9 8 8 7 7 7 7 8 8 8 8 7 7 7 7 7 7
3 2 2 1 2 2 2 1 1 1 1 1 1 1 2 3 4 4 3 3 3 7 8 8 9 9 9 8 8 8 7 7 7 7 7 8 8 8 8 8 7 7 7
3 2 2 1 1 1 1 1 0 0 1 1 1 1 1 2 3 4 3 3 3 3 5 8 8 8 9 9 8 8 7 7 7 7 8 8 8 8 8 8 8 7 8
3 2 1 1 1 0 0 1 1 1 0 1 1 1 0 1 2 3 3 4 4 3 3 5 7 8 9 8 8 8 8 8 8 8 8 8 8 8 8 8 8 8 8
2 2 1 1 1 1 1 0 1 0 1 1 1 1 1 1 1 2 3 3 3 4 3 3 3 5 8 7 7 8 8 8 7 8 8 9 9 8 8 8 8 8 8
2 2 1 1 1 1 1 1 1 1 0 1 2 2 3 2 0 1 1 1 2 3 3 3 2 2 2 6 7 7 8 8 8 8 9 8 8 8 8 8 8 8 8
2 2 2 1 1 1 0 0 1 1 0 1 2 1 2 3 3 1 1 1 1 1 2 4 3 3 3 2 4 7 8 8 8 8 8 8 8 8 8 8 8 8 8
2 2 2 2 1 1 1 1 1 2 1 0 1 3 2 1 2 2 1 0 0 1 1 2 3 4 4 3 2 4 7 7 8 8 9 9 8 7 7 8 8 8 8
2 2 2 2 2 1 1 1 1 1 2 0 1 0 2 3 2 1 2 2 1 1 2 2 2 3 3 3 3 4 4 5 6 7 8 8 8 8 8 8 8 8 8
1 1 2 2 2 1 1 1 1 1 1 1 1 0 0 1 1 2 2 2 2 1 1 2 2 2 2 2 2 4 5 5 5 5 7 8 8 8 8 8 9 9 9
1 1 1 2 2 1 1 1 1 1 1 1 1 1 1 1 1 2 2 2 2 2 1 1 1 1 2 2 4 6 6 6 5 5 6 7 8 8 8 8 9 8 9
1 2 1 2 1 2 2 1 1 1 1 1 1 1 1 2 2 2 2 1 1 2 1 1 1 1 2 2 3 5 5 6 6 6 6 7 8 8 7 7 7 7 8
3 2 2 2 2 2 2 1 1 1 1 1 1 1 1 1 1 2 2 2 0 1 1 2 1 1 1 2 3 5 3 6 7 7 7 7 7 7 7 6 6 6 6
2 2 2 2 2 2 2 2 1 1 1 1 1 1 1 1 0 1 1 3 3 1 2 2 1 1 1 2 3 2 2 5 7 7 7 7 7 7 7 6 6 6 6
2 2 2 2 2 2 2 1 1 1 0 1 1 1 1 1 1 0 1 1 2 3 2 2 2 2 2 2 3 3 3 5 7 7 7 7 7 8 8 7 7 7 7
2 2 2 2 2 1 1 1 1 1 1 1 1 1 1 1 1 1 0 1 1 2 2 2 1 1 0 1 1 2 2 3 4 7 7 8 8 8 8 8 8 8 8
2 2 1 1 2 1 1 2 2 1 1 1 2 1 2 1 1 1 1 1 1 2 2 2 2 1 1 2 1 2 2 3 3 6 7 8 8 8 8 9 9 8 9
1 1 1 1 1 1 1 1 1 1 1 2 1 1 2 1 1 1 1 1 1 1 1 2 2 2 1 1 0 2 2 2 3 4 6 8 8 8 8 8 8 8 9
1 1 1 1 1 1 1 1 1 1 1 1 1 1 1 2 2 2 1 1 1 1 1 1 2 2 1 1 0 1 2 2 3 2 3 4 6 7 8 9 9 9 9
1 1 0 0 0 1 1 1 1 2 1 1 1 2 2 2 2 2 2 2 2 1 1 1 2 1 1 1 1 1 2 2 3 2 1 2 2 3 4 7 9 10 10
0 1 1 1 0 1 1 1 1 1 1 2 2 3 3 2 3 3 3 3 3 3 3 2 2 3 3 3 2 2 1 1 3 2 1 3 2 4 4 4 7 9 10
1 1 1 1 1 2 2 1 2 1 1 2 2 2 2 1 2 2 3 3 3 4 5 4 4 4 4 4 3 3 3 3 4 3 1 3 2 4 4 5 8 9 9
1 1 1 1 1 2 1 1 1 1 1 2 2 2 2 2 2 2 2 2 3 3 4 4 5 5 5 4 5 4 5 4 4 3 3 3 3 4 4 3 7 8 9
1 1 1 1 1 2 2 1 1 0 1 2 2 1 2 2 3 2 1 2 3 4 5 5 5 6 7 7 4 2 2 1 3 3 2 3 2 2 3 3 5 7 9
1 0 0 0 1 1 1 1 1 1 1 2 2 2 2 2 3 2 2 2 3 5 3 3 4 5 4 5 5 4 4 3 2 3 3 2 2 1 2 3 2 2 4
Wind_Direction
179 194 213 211 215 211 219 236 245 261 269 267 256 216 185 175 177 179 189 191 193 195 196 197 199 199 200 199 199 200 206 205 204 192 194 197 195 191 185 183 184 182 181
183 183 200 214 221 220 218 223 238 246 262 267 256 207 176 163 174 179 181 191 195 196 202 204 205 203 200 199 197 201 208 203 197 191 193 193 192 187 183 184 182 178 178
179 177 180 203 226 224 216 218 248 260 275 277 280 215 180 170 176 183 185 188 197 204 208 209 208 206 203 204 203 207 209 204 195 193 191 187 186 185 185 186 182 179 182
178 170 168 207 220 192 179 175 170 66 317 324 292 252 201 171 176 181 182 185 191 204 212 212 209 208 209 209 208 207 206 203 193 192 191 187 186 187 190 188 184 184 189
166 163 178 213 210 154 153 212 140 159 198 299 276 267 230 185 183 187 188 196 196 198 202 209 210 208 210 212 211 210 209 204 195 195 196 193 193 194 195 194 192 192 191
158 148 157 182 143 120 98 113 133 125 191 222 315 5 322 246 198 190 197 202 203 201 194 204 211 216 216 216 215 212 210 204 201 203 204 201 199 198 198 198 197 195 194
158 144 142 139 138 140 173 163 135 114 357 69 55 11 357 356 329 230 200 193 207 209 189 197 203 206 218 220 218 215 216 212 209 210 208 203 202 204 201 197 195 195 196
163 154 153 154 149 137 122 131 115 113 1 85 111 82 3 349 342 309 239 191 207 197 185 196 200 201 209 211 214 215 217 219 215 213 206 203 202 204 205 204 201 199 201
158 151 154 152 141 141 174 201 158 144 166 279 139 142 145 229 307 321 304 283 211 190 199 192 200 209 206 207 211 218 217 218 216 213 210 204 201 202 206 208 207 205 206
168 155 156 157 159 150 156 204 153 159 144 204 303 176 170 168 169 299 321 315 284 221 219 204 202 209 207 202 201 202 204 208 213 213 207 201 202 202 205 208 211 212 210
200 170 160 155 159 163 173 175 132 142 153 168 186 200 92 95 145 161 267 307 318 290 245 213 203 203 208 193 190 194 191 192 205 214 206 201 200 203 207 212 215 216 215
264 230 174 176 175 174 183 191 183 161 178 170 177 164 165 173 187 167 206 249 273 280 258 233 195 210 205 191 198 190 187 186 198 210 214 205 202 205 209 213 216 217 216
236 240 206 195 197 198 193 186 178 196 193 185 205 213 197 208 185 168 168 218 266 296 321 293 236 200 208 192 202 190 194 193 200 204 206 205 203 205 209 212 213 216 217
217 218 203 203 199 190 185 173 178 216 184 205 221 218 216 242 193 180 173 166 204 323 317 283 287 238 220 195 208 196 205 202 207 207 207 204 205 207 208 209 213 215 217
210 210 201 199 202 194 178 161 173 226 192 206 223 234 233 262 238 212 171 164 163 206 274 270 275 271 235 202 208 197 206 210 211 213 211 210 212 213 211 210 213 213 217
214 202 201 191 195 199 197 181 195 219 188 253 221 209 263 266 243 211 184 180 169 175 224 254 244 246 229 216 214 204 212 210 211 215 215 215 217 219 218 218 219 219 220
198 198 203 200 200 208 204 192 220 202 205 264 275 228 251 253 248 248 196 175 197 172 213 270 264 272 228 241 231 223 219 220 224 222 222 219 219 222 221 223 224 224 224
202 204 207 207 208 194 186 189 221 218 195 234 270 268 272 273 264 243 208 221 223 202 192 249 278 262 239 237 223 225 233 226 231 233 226 223 224 226 227 228 228 229 229
197 211 187 209 225 198 191 212 214 223 221 232 239 235 254 253 263 261 249 251 258 252 195 212 257 253 265 273 287 272 258 263 249 242 227 229 231 233 236 235 233 233 233
164 209 205 212 201 190 199 212 233 251 246 243 229 221 234 226 230 234 240 248 250 265 236 229 258 262 264 281 121 273 290 274 260 252 243 234 236 238 241 241 239 237 237
169 183 163 177 188 179 205 205 228 231 225 243 256 245 240 233 226 221 222 216 209 213 217 233 259 272 267 261 244 245 257 274 265 241 241 250 244 247 244 245 244 241 238
118 118 144 170 241 255 245 206 199 225 233 238 251 259 252 238 247 252 249 230 203 200 205 214 235 237 245 235 234 235 240 272 281 263 211 259 223 244 246 237 242 237 234
149 164 195 176 229 268 255 236 224 209 239 244 246 256 268 255 233 256 264 267 261 243 211 200 218 231 234 228 219 237 232 232 245 246 195 261 245 247 249 248 244 240 235
169 186 213 222 244 294 282 251 250 219 260 259 246 226 231 265 275 248 246 278 280 271 251 225 221 233 235 226 212 218 227 244 263 259 191 236 251 248 256 249 246 238 235
195 206 214 191 204 299 307 266 205 183 274 287 272 255 244 250 279 258 237 271 288 289 277 261 253 257 262 252 230 202 226 237 273 273 219 208 247 260 266 259 253 240 233
175 93 4 121 162 293 318 266 199 180 234 278 295 287 263 259 276 261 221 243 271 278 289 298 291 291 279 273 254 215 207 211 239 266 243 199 232 222 284 274 260 251 238